,

(GMT )
Charleville

Weather History for LFQV - March, 2014

Change the Weather History Date:

Thursday, March 20, 2014

  Actual Average Record
Temperature  
Mean Temperature 48 °F -  
Max Temperature 67 °F - - ()
Min Temperature 29 °F - - ()
Degree Days  
Heating Degree Days 17    
Moisture  
Dew Point 38 °F    
Average Humidity 61    
Maximum Humidity 100    
Minimum Humidity 27    
Precipitation  
Precipitation 0.00 in - - ()
Sea Level Pressure  
Sea Level Pressure 30.04 in    
Wind  
Wind Speed 4 mph ()    
Max Wind Speed 13 mph    
Max Gust Speed -    
Visibility 2.6 miles    
Events Fog    
T = Trace of Precipitation, MM = Missing Value Source: Averaged Metar Reports

Daily Weather History Graph

Daily Weather History Graph

Search for Another Location

Airport or City:

Astronomy

Mar. 20, 2014 Rise Set
Actual Time 6:44 AM CET 6:54 PM CET
Civil Twilight 6:12 AM CET 7:26 PM CET
Nautical Twilight 5:34 AM CET 8:04 PM CET
Astronomical Twilight 4:55 AM CET 8:43 PM CET
Moon 11:21 PM CET (3/20) 8:19 AM CET (3/20)
Length of Visible Light 13h 13m
Length of Day
12h 09m
Waning Gibbous, 86% of the Moon is Illuminated
Mar 20
Waning Gibbous
Mar 24
Last Quarter
Mar 30
New
Apr 7
First Quarter
Apr 15
Full

Hourly Weather History & Observations

Time (CET) Temp. Dew Point Humidity Pressure Visibility Wind Dir Wind Speed Gust Speed Precip Events Conditions
12:00 AM 37 °F 36 °F 94% 30.29 in 0 mi Calm Calm - - Fog Partial Fog
1:00 AM 35 °F 34 °F 96% 30.28 in 4 mi Calm Calm - -   Clear
2:00 AM 33 °F 32 °F 95% 30.26 in 0 mi East 1.2 mph - - Fog Partial Fog
3:00 AM 32 °F 31 °F 94% 30.25 in 2 mi SW 1.2 mph - -   Mist
4:00 AM 30 °F 30 °F 99% 30.23 in 0 mi East 2.3 mph - - Fog Fog
5:00 AM 30 °F 29 °F 97% 30.20 in 0 mi SSE 1.2 mph - - Fog Heavy Fog
7:00 AM 30 °F 29 °F 97% 30.17 in 0 mi SW 1.2 mph - - Fog Heavy Fog
8:00 AM 31 °F 31 °F 100% 30.16 in 0 mi South 1.2 mph - - Fog Heavy Fog
9:00 AM 42 °F 42 °F 98% 30.13 in 3 mi South 1.2 mph - -   Clear
10:00 AM 49 °F 44 °F 76% 30.11 in 8 mi SE 5.8 mph - -   Clear
11:00 AM 54 °F 42 °F 55% 30.06 in 12 mi ESE 10.4 mph - -   Clear
12:00 PM 59 °F 43 °F 44% 30.00 in - SE 12.7 mph - -  
1:00 PM 65 °F 41 °F 30% 29.97 in - South 12.7 mph - -  
2:00 PM 67 °F 41 °F 27% 29.94 in - South 11.5 mph - -  
3:00 PM 66 °F 41 °F 29% 29.92 in - South 11.5 mph - -  
4:00 PM 66 °F 40 °F 28% 29.89 in - SSW 12.7 mph - -  
5:00 PM 67 °F 43 °F 30% 29.88 in - SSW 8.1 mph - -  
6:00 PM 64 °F 42 °F 33% 29.87 in - South 8.1 mph - -  
7:00 PM 60 °F 40 °F 36% 29.87 in - SSW 6.9 mph - -  
8:00 PM 60 °F 40 °F 35% 29.86 in - South 5.8 mph - -  
9:00 PM 60 °F 41 °F 38% 29.85 in - SW 5.8 mph - -  
10:00 PM 60 °F 42 °F 39% 29.86 in - SW 5.8 mph - -  
11:00 PM 59 °F 42 °F 41% 29.85 in - SW 5.8 mph - -